Home   Weather   Oakland   Past weeks

Flag for USA Past Weather in Oakland, California, USA — Yesterday and Last 2 Weeks

Now
57 °F

Overcast.


Feels Like: 55 °F
Forecast: 53 / 67 °F
Wind: 9 mph from West

Location: Metro Oakland International Airport

Current Time: May 27, 2017 at 5:08:35 am

Latest Report: May 27, 2017 at 3:53 am


Visibility: 10 mi

Pressure: 30.05 "Hg

Humidity: 74%

Dew Point: 49 °F

Location of OaklandLocation

Past Weather in Oakland — Graph

°F

Oakland Temperature Yesterday

Maximum temperature yesterday: 66 °F (at 2:53 pm)
Minimum temperature yesterday: 57 °F (at 9:53 pm)
Average temperature yesterday: 60 °F

High & Low Weather Summary for the Past Weeks

 TemperatureHumidityPressure
High85 °F (May 20, 2:53 pm)93% (May 22, 5:20 am)30.17 "Hg (May 22, 5:20 am)
Low48 °F (May 14, 6:28 am)29% (May 20, 2:53 pm)29.72 "Hg (May 25, 2:53 am)
Average61 °F70%29.96 "Hg
* Reported May 12 3:53 am — May 27 3:53 am, Oakland. Weather by CustomWeather, © 2017

Note: Actual official high and low records may vary slightly from our data, if they occured in-between our weather recording intervals... More about our weather records

Advertising

Oakland Weather History for the Previous 24 Hours

Scroll right to see more
 ConditionsComfort  
Time TempWeatherWind HumidityBarometerVisibility
3:53 am
Sat, May 27
57 °FOvercast.9 mph74%30.05 "Hg10 mi
2:53 am57 °FPassing clouds.8 mph78%30.05 "Hg10 mi
1:53 am57 °FPassing clouds.8 mph78%30.06 "Hg10 mi
1:35 am57 °FPassing clouds.10 mph78%30.06 "Hg10 mi
12:53 am57 °FPassing clouds.9 mph78%30.06 "Hg10 mi
11:53 pm
Fri, May 26
57 °FPassing clouds.7 mph74%30.06 "Hg10 mi
10:53 pm57 °FPassing clouds.6 mph74%30.06 "Hg10 mi
9:53 pm57 °FPassing clouds.8 mph78%30.05 "Hg10 mi
8:53 pm58 °FPassing clouds.12 mph75%30.03 "Hg10 mi
7:53 pm60 °FPassing clouds.14 mph69%30.01 "Hg10 mi
6:53 pm62 °FPartly sunny.15 mph62%30.01 "Hg10 mi
5:53 pm64 °FPartly sunny.13 mph58%30.01 "Hg10 mi
4:53 pm64 °FBroken clouds.15 mph58%30.00 "Hg10 mi
3:53 pm66 °FMore clouds than sun.14 mph56%30.00 "Hg10 mi
2:53 pm66 °FMore clouds than sun.13 mph59%30.00 "Hg10 mi
1:53 pm64 °FMore clouds than sun.12 mph63%30.00 "Hg10 mi
12:53 pm63 °FMore clouds than sun.12 mph65%30.00 "Hg10 mi
11:53 am63 °FMore clouds than sun.8 mph65%29.99 "Hg10 mi
10:53 am61 °FMostly cloudy.7 mph70%29.98 "Hg10 mi
10:41 am60 °FOvercast.8 mph69%29.98 "Hg10 mi
9:53 am61 °FOvercast.9 mph70%29.97 "Hg10 mi
7:53 am59 °FOvercast.15 mph72%29.93 "Hg10 mi
7:25 am59 °FOvercast.16 mph72%29.93 "Hg10 mi
6:53 am59 °FOvercast.17 mph72%29.92 "Hg10 mi
5:53 am58 °FOvercast.16 mph72%29.89 "Hg10 mi
5:09 am58 °FOvercast.16 mph72%29.89 "Hg10 mi
Weather by CustomWeather, © 2017

See weather overviewHow to use our weather pages